PAS243 WAHI-WIII

Flight info

Callsign PAS243
Flight time 0h 55m
Altitude 32000
Route CA W17S IMU
Aircraft A320/M-SDE3FGHIRWY/LB1

Departure

Time 2026-04-28 05:37
Airport Yogyakarta International Airport (WAHI)

Arrival

Time 2026-04-28 06:32
Airport Soekarno-Hatta International Airport (WIII)
Time Latitude Longitude Altitude Speed Heading
2026-04-28 05:22 -7.90112 110.05869 38 ft 0 kts 20°
2026-04-28 05:26 -7.90123 110.05864 38 ft 4 kts 18°
2026-04-28 05:26 -7.90150 110.05857 36 ft 4 kts 11°
2026-04-28 05:26 -7.90176 110.05854 37 ft 4 kts 360°
2026-04-28 05:26 -7.90203 110.05857 38 ft 4 kts 335°
2026-04-28 05:27 -7.90219 110.05870 38 ft 1 kts 290°
2026-04-28 05:27 -7.90220 110.05874 38 ft 0 kts 290°
2026-04-28 05:29 -7.90220 110.05873 38 ft 2 kts 290°
2026-04-28 05:29 -7.90209 110.05845 36 ft 7 kts 290°
2026-04-28 05:30 -7.90209 110.05800 38 ft 6 kts 239°
2026-04-28 05:30 -7.90247 110.05781 38 ft 6 kts 200°
2026-04-28 05:30 -7.90306 110.05760 42 ft 9 kts 199°
2026-04-28 05:30 -7.90343 110.05735 43 ft 9 kts 243°
2026-04-28 05:31 -7.90320 110.05637 42 ft 17 kts 290°
2026-04-28 05:31 -7.90277 110.05522 42 ft 19 kts 291°
2026-04-28 05:31 -7.90229 110.05392 41 ft 21 kts 290°
2026-04-28 05:31 -7.90194 110.05296 37 ft 22 kts 289°
2026-04-28 05:32 -7.90137 110.05138 36 ft 25 kts 290°
2026-04-28 05:32 -7.90076 110.04969 36 ft 26 kts 290°
2026-04-28 05:32 -7.90013 110.04801 38 ft 27 kts 290°
2026-04-28 05:32 -7.89951 110.04630 41 ft 25 kts 290°
2026-04-28 05:33 -7.89899 110.04485 40 ft 20 kts 290°
2026-04-28 05:33 -7.89860 110.04380 40 ft 12 kts 290°
2026-04-28 05:33 -7.89848 110.04325 39 ft 5 kts 259°
2026-04-28 05:33 -7.89866 110.04308 40 ft 2 kts 202°
2026-04-28 05:34 -7.89873 110.04306 40 ft 0 kts 192°
2026-04-28 05:35 -7.89875 110.04306 40 ft 3 kts 191°
2026-04-28 05:35 -7.89889 110.04306 40 ft 3 kts 176°
2026-04-28 05:35 -7.89933 110.04323 41 ft 8 kts 152°
2026-04-28 05:35 -7.90001 110.04356 42 ft 8 kts 171°
2026-04-28 05:36 -7.90034 110.04362 42 ft 3 kts 138°
2026-04-28 05:36 -7.90043 110.04384 42 ft 3 kts 111°
2026-04-28 05:36 -7.90067 110.04446 43 ft 33 kts 111°
2026-04-28 05:36 -7.90237 110.04909 38 ft 104 kts 110°
2026-04-28 05:37 -7.90550 110.05768 45 ft 155 kts 110°
2026-04-28 05:37 -7.90968 110.06903 306 ft 178 kts 111°
2026-04-28 05:37 -7.91477 110.08032 998 ft 177 kts 132°
2026-04-28 05:37 -7.92539 110.08578 1712 ft 175 kts 172°
2026-04-28 05:38 -7.93762 110.08688 2197 ft 186 kts 176°
2026-04-28 05:38 -7.95132 110.08764 2431 ft 208 kts 175°
2026-04-28 05:38 -7.96673 110.08854 2698 ft 234 kts 175°
2026-04-28 05:38 -7.98337 110.08968 3304 ft 244 kts 174°
2026-04-28 05:39 -8.00040 110.09099 4083 ft 248 kts 173°
2026-04-28 05:39 -8.01767 110.09246 4884 ft 249 kts 173°
2026-04-28 05:39 -8.03506 110.09406 5676 ft 252 kts 172°
2026-04-28 05:39 -8.05257 110.09597 6468 ft 253 kts 167°
2026-04-28 05:40 -8.06961 110.10137 7025 ft 266 kts 154°
2026-04-28 05:40 -8.08686 110.10935 7550 ft 277 kts 153°
2026-04-28 05:40 -8.10452 110.11766 8245 ft 282 kts 153°
2026-04-28 05:40 -8.12242 110.12609 8976 ft 286 kts 153°
2026-04-28 05:41 -8.14055 110.13460 9667 ft 290 kts 153°
2026-04-28 05:41 -8.15908 110.14329 10215 ft 301 kts 153°
2026-04-28 05:41 -8.17871 110.15252 10363 ft 323 kts 153°
2026-04-28 05:41 -8.19980 110.16239 10503 ft 344 kts 153°
2026-04-28 05:42 -8.22205 110.17270 10817 ft 357 kts 153°
2026-04-28 05:42 -8.24484 110.18324 11377 ft 362 kts 153°
2026-04-28 05:42 -8.26779 110.19385 12007 ft 364 kts 153°
2026-04-28 05:42 -8.29093 110.20452 12643 ft 367 kts 155°
2026-04-28 05:43 -8.31573 110.21117 13213 ft 375 kts 173°
2026-04-28 05:43 -8.34190 110.20888 13744 ft 384 kts 193°
2026-04-28 05:43 -8.36618 110.19722 14276 ft 393 kts 214°
2026-04-28 05:43 -8.38514 110.17721 14793 ft 401 kts 236°
2026-04-28 05:44 -8.39830 110.15214 15302 ft 406 kts 243°
2026-04-28 05:44 -8.40752 110.12520 15787 ft 411 kts 260°
2026-04-28 05:44 -8.40769 110.09633 16268 ft 415 kts 279°
2026-04-28 05:44 -8.39862 110.06870 16753 ft 417 kts 299°
2026-04-28 05:45 -8.38110 110.04545 17252 ft 418 kts 319°
2026-04-28 05:45 -8.35712 110.02908 17752 ft 418 kts 335°
2026-04-28 05:45 -8.33102 110.01603 18225 ft 420 kts 335°
2026-04-28 05:45 -8.30429 110.00375 18651 ft 422 kts 341°
2026-04-28 05:46 -8.27603 109.99589 19063 ft 423 kts 351°
2026-04-28 05:46 -8.24678 109.99280 19437 ft 424 kts 358°
2026-04-28 05:46 -8.21720 109.99112 19802 ft 427 kts 358°
2026-04-28 05:46 -8.18739 109.98932 20172 ft 430 kts 358°
2026-04-28 05:47 -8.15746 109.98744 20539 ft 433 kts 358°
2026-04-28 05:47 -8.12733 109.98547 20891 ft 436 kts 358°
2026-04-28 05:47 -8.09695 109.98349 21236 ft 438 kts 357°
2026-04-28 05:47 -8.06640 109.98157 21579 ft 441 kts 358°
2026-04-28 05:48 -8.03571 109.97968 21914 ft 443 kts 358°
2026-04-28 05:48 -8.00482 109.97781 22239 ft 446 kts 358°
2026-04-28 05:48 -7.97379 109.97594 22550 ft 449 kts 358°
2026-04-28 05:48 -7.94251 109.97405 22858 ft 451 kts 357°
2026-04-28 05:49 -7.91123 109.97162 23144 ft 453 kts 353°
2026-04-28 05:49 -7.88031 109.96494 23417 ft 456 kts 343°
2026-04-28 05:49 -7.85040 109.95391 23684 ft 459 kts 339°
2026-04-28 05:49 -7.82062 109.94218 23945 ft 461 kts 339°
2026-04-28 05:50 -7.79070 109.93042 24212 ft 463 kts 339°
2026-04-28 05:50 -7.76060 109.91865 24483 ft 465 kts 339°
2026-04-28 05:50 -7.73040 109.90688 24781 ft 466 kts 339°
2026-04-28 05:50 -7.70002 109.89505 25065 ft 468 kts 339°
2026-04-28 05:51 -7.66966 109.88323 25350 ft 469 kts 339°
2026-04-28 05:51 -7.63987 109.86983 25649 ft 470 kts 332°
2026-04-28 05:51 -7.61129 109.85368 25901 ft 472 kts 330°
2026-04-28 05:51 -7.58265 109.83742 26163 ft 473 kts 330°
2026-04-28 05:52 -7.55398 109.82115 26406 ft 474 kts 331°
2026-04-28 05:52 -7.52520 109.80485 26639 ft 475 kts 331°
2026-04-28 05:52 -7.49635 109.78849 26882 ft 476 kts 329°
2026-04-28 05:52 -7.46910 109.76947 27086 ft 477 kts 320°
2026-04-28 05:53 -7.44522 109.74629 27300 ft 478 kts 311°
2026-04-28 05:53 -7.42528 109.71944 27523 ft 479 kts 302°
2026-04-28 05:53 -7.40761 109.69093 27723 ft 481 kts 302°
2026-04-28 05:53 -7.38980 109.66233 27937 ft 482 kts 302°
2026-04-28 05:54 -7.37187 109.63368 28137 ft 484 kts 302°
2026-04-28 05:54 -7.35390 109.60505 28364 ft 484 kts 302°
2026-04-28 05:54 -7.33593 109.57636 28662 ft 483 kts 302°
2026-04-28 05:54 -7.31804 109.54780 28965 ft 482 kts 302°
2026-04-28 05:55 -7.30018 109.51929 29251 ft 481 kts 302°
2026-04-28 05:55 -7.28236 109.49084 29536 ft 480 kts 302°
2026-04-28 05:55 -7.26453 109.46239 29849 ft 479 kts 302°
2026-04-28 05:55 -7.24677 109.43403 30165 ft 478 kts 302°
2026-04-28 05:56 -7.22906 109.40572 30474 ft 477 kts 303°
2026-04-28 05:56 -7.21140 109.37748 30762 ft 476 kts 302°
2026-04-28 05:56 -7.19376 109.34926 31065 ft 476 kts 303°
2026-04-28 05:56 -7.17615 109.32111 31348 ft 475 kts 303°
2026-04-28 05:57 -7.15857 109.29304 31642 ft 474 kts 303°
2026-04-28 05:57 -7.14097 109.26496 31811 ft 475 kts 303°
2026-04-28 05:57 -7.10565 109.20874 31840 ft 475 kts 303°
2026-04-28 05:58 -7.07039 109.15253 31836 ft 475 kts 303°
2026-04-28 05:58 -7.03516 109.09631 31834 ft 475 kts 303°
2026-04-28 05:59 -6.99981 109.04003 31852 ft 475 kts 303°
2026-04-28 05:59 -6.96455 108.98385 31835 ft 475 kts 303°
2026-04-28 06:00 -6.92933 108.92779 31832 ft 474 kts 303°
2026-04-28 06:00 -6.89408 108.87166 31833 ft 474 kts 303°
2026-04-28 06:01 -6.85884 108.81555 31836 ft 475 kts 303°
2026-04-28 06:01 -6.82351 108.75931 31836 ft 475 kts 303°
2026-04-28 06:02 -6.78818 108.70310 31840 ft 476 kts 303°
2026-04-28 06:02 -6.75276 108.64687 31857 ft 476 kts 303°
2026-04-28 06:03 -6.71677 108.59098 31856 ft 476 kts 308°
2026-04-28 06:03 -6.66951 108.54496 31856 ft 473 kts 326°
2026-04-28 06:04 -6.61252 108.51202 31854 ft 472 kts 332°
2026-04-28 06:04 -6.55516 108.47993 31838 ft 472 kts 332°
2026-04-28 06:05 -6.49777 108.44760 31840 ft 473 kts 332°
2026-04-28 06:05 -6.44030 108.41530 31850 ft 473 kts 332°
2026-04-28 06:06 -6.38276 108.38307 31846 ft 474 kts 332°
2026-04-28 06:06 -6.32526 108.35077 31849 ft 474 kts 329°
2026-04-28 06:07 -6.27456 108.30854 31842 ft 476 kts 315°
2026-04-28 06:07 -6.22846 108.26055 31836 ft 477 kts 315°
2026-04-28 06:08 -6.18226 108.21270 31845 ft 477 kts 315°
2026-04-28 06:08 -6.13597 108.16483 31852 ft 477 kts 315°
2026-04-28 06:09 -6.08972 108.11715 31846 ft 477 kts 315°
2026-04-28 06:09 -6.04333 108.06955 31839 ft 477 kts 315°
2026-04-28 06:10 -5.99838 108.02056 31837 ft 478 kts 306°
2026-04-28 06:10 -5.96928 107.96070 31835 ft 481 kts 286°
2026-04-28 06:11 -5.96135 107.89416 31065 ft 483 kts 271°
2026-04-28 06:11 -5.96116 107.87168 30212 ft 489 kts 270°
2026-04-28 06:11 -5.96119 107.82554 28630 ft 499 kts 269°
2026-04-28 06:12 -5.96132 107.80235 27793 ft 503 kts 269°
2026-04-28 06:12 -5.96154 107.76698 26499 ft 509 kts 269°
2026-04-28 06:12 -5.96173 107.73151 25753 ft 502 kts 269°
2026-04-28 06:12 -5.96181 107.69711 25603 ft 483 kts 269°
2026-04-28 06:13 -5.96177 107.66411 25471 ft 464 kts 269°
2026-04-28 06:13 -5.96168 107.63226 25342 ft 448 kts 269°
2026-04-28 06:13 -5.96162 107.60147 25051 ft 436 kts 269°
2026-04-28 06:13 -5.96159 107.57126 24464 ft 427 kts 269°
2026-04-28 06:14 -5.96161 107.54170 23509 ft 421 kts 269°
2026-04-28 06:14 -5.96166 107.51235 22934 ft 418 kts 269°
2026-04-28 06:14 -5.96171 107.48322 22356 ft 416 kts 269°
2026-04-28 06:14 -5.96171 107.45435 21820 ft 411 kts 269°
2026-04-28 06:15 -5.96169 107.42598 21460 ft 400 kts 269°
2026-04-28 06:15 -5.96164 107.39835 20882 ft 392 kts 269°
2026-04-28 06:15 -5.96161 107.37112 20233 ft 389 kts 269°
2026-04-28 06:15 -5.96158 107.33492 19616 ft 385 kts 269°
2026-04-28 06:16 -5.96157 107.31714 19261 ft 385 kts 269°
2026-04-28 06:16 -5.96156 107.29046 18727 ft 379 kts 269°
2026-04-28 06:16 -5.96156 107.26419 18174 ft 374 kts 269°
2026-04-28 06:16 -5.96155 107.23811 17688 ft 373 kts 269°
2026-04-28 06:17 -5.96153 107.21208 17193 ft 372 kts 269°
2026-04-28 06:17 -5.96148 107.18614 16703 ft 372 kts 269°
2026-04-28 06:17 -5.96143 107.16020 16237 ft 370 kts 269°
2026-04-28 06:18 -5.96133 107.10904 15248 ft 363 kts 269°
2026-04-28 06:18 -5.96125 107.08371 14756 ft 362 kts 269°
2026-04-28 06:18 -5.96118 107.05845 14283 ft 362 kts 269°
2026-04-28 06:18 -5.96114 107.03323 13866 ft 359 kts 269°
2026-04-28 06:19 -5.96111 107.00821 13277 ft 358 kts 269°
2026-04-28 06:19 -5.96107 106.98323 12856 ft 356 kts 269°
2026-04-28 06:19 -5.96102 106.95838 12303 ft 354 kts 269°
2026-04-28 06:19 -5.96095 106.93382 11715 ft 351 kts 269°
2026-04-28 06:20 -5.96088 106.90949 11180 ft 346 kts 269°
2026-04-28 06:20 -5.96079 106.88530 10744 ft 345 kts 269°
2026-04-28 06:20 -5.96069 106.86143 10462 ft 338 kts 269°
2026-04-28 06:20 -5.96060 106.83822 10346 ft 326 kts 269°
2026-04-28 06:21 -5.96053 106.81589 10228 ft 315 kts 269°
2026-04-28 06:21 -5.96115 106.79428 10094 ft 304 kts 261°
2026-04-28 06:21 -5.96619 106.77401 9797 ft 298 kts 247°
2026-04-28 06:21 -5.97399 106.75469 9448 ft 295 kts 246°
2026-04-28 06:22 -5.98170 106.73578 8970 ft 291 kts 246°
2026-04-28 06:22 -5.98929 106.71711 8429 ft 286 kts 247°
2026-04-28 06:22 -5.99676 106.69873 8007 ft 285 kts 247°
2026-04-28 06:22 -6.00422 106.68033 7593 ft 284 kts 247°
2026-04-28 06:23 -6.01168 106.66195 7217 ft 283 kts 247°
2026-04-28 06:23 -6.01909 106.64366 6817 ft 282 kts 247°
2026-04-28 06:23 -6.02643 106.62557 6405 ft 279 kts 247°
2026-04-28 06:23 -6.03365 106.60776 6118 ft 270 kts 247°
2026-04-28 06:24 -6.04060 106.59062 5994 ft 259 kts 247°
2026-04-28 06:24 -6.04731 106.57413 5743 ft 253 kts 247°
2026-04-28 06:24 -6.05395 106.55771 5361 ft 253 kts 248°
2026-04-28 06:24 -6.06051 106.54140 5013 ft 252 kts 248°
2026-04-28 06:25 -6.06709 106.52503 4676 ft 251 kts 248°
2026-04-28 06:25 -6.07362 106.50884 4220 ft 249 kts 248°
2026-04-28 06:25 -6.08013 106.49274 3791 ft 249 kts 248°
2026-04-28 06:25 -6.08661 106.47669 3411 ft 249 kts 248°
2026-04-28 06:26 -6.09301 106.46081 3272 ft 240 kts 248°
2026-04-28 06:26 -6.09922 106.44541 3166 ft 238 kts 248°
2026-04-28 06:26 -6.10707 106.43093 3054 ft 236 kts 224°
2026-04-28 06:26 -6.12102 106.42317 3003 ft 230 kts 187°
2026-04-28 06:27 -6.13676 106.42472 3010 ft 229 kts 161°
2026-04-28 06:27 -6.15230 106.42870 2953 ft 234 kts 166°
2026-04-28 06:27 -6.16758 106.43485 2337 ft 243 kts 137°
2026-04-28 06:27 -6.17565 106.44909 2051 ft 233 kts 96°
2026-04-28 06:28 -6.17647 106.46487 2007 ft 223 kts 88°
2026-04-28 06:28 -6.17601 106.48048 2005 ft 223 kts 86°
2026-04-28 06:28 -6.17408 106.49589 2006 ft 222 kts 70°
2026-04-28 06:28 -6.16800 106.51003 2008 ft 221 kts 65°
2026-04-28 06:29 -6.16214 106.52389 2006 ft 209 kts 66°
2026-04-28 06:29 -6.15680 106.53704 2020 ft 196 kts 67°
2026-04-28 06:29 -6.15195 106.54914 2011 ft 178 kts 67°
2026-04-28 06:29 -6.14744 106.56040 1779 ft 170 kts 67°
2026-04-28 06:30 -6.14323 106.57095 1567 ft 155 kts 66°
2026-04-28 06:30 -6.13932 106.58077 1358 ft 149 kts 66°
2026-04-28 06:30 -6.13553 106.59031 1157 ft 146 kts 66°
2026-04-28 06:30 -6.13181 106.59963 973 ft 145 kts 66°
2026-04-28 06:31 -6.12809 106.60899 784 ft 144 kts 66°
2026-04-28 06:31 -6.12436 106.61836 602 ft 144 kts 66°
2026-04-28 06:31 -6.12060 106.62785 414 ft 144 kts 66°
2026-04-28 06:31 -6.11677 106.63717 230 ft 145 kts 66°
2026-04-28 06:32 -6.11307 106.64640 75 ft 144 kts 66°
2026-04-28 06:32 -6.10938 106.65549 37 ft 125 kts 70°
2026-04-28 06:32 -6.10688 106.66184 35 ft 75 kts 68°
2026-04-28 06:32 -6.10608 106.66427 33 ft 15 kts 95°
2026-04-28 06:33 -6.10632 106.66535 34 ft 16 kts 102°
2026-04-28 06:33 -6.10652 106.66622 35 ft 9 kts 118°
2026-04-28 06:33 -6.10699 106.66658 36 ft 10 kts 154°
2026-04-28 06:33 -6.10756 106.66678 37 ft 9 kts 172°
2026-04-28 06:34 -6.10807 106.66625 36 ft 16 kts 247°
2026-04-28 06:34 -6.10848 106.66524 37 ft 15 kts 248°
2026-04-28 06:34 -6.10884 106.66434 37 ft 13 kts 248°
2026-04-28 06:34 -6.10920 106.66343 37 ft 14 kts 248°
2026-04-28 06:35 -6.10954 106.66257 36 ft 12 kts 248°
2026-04-28 06:35 -6.10990 106.66167 38 ft 13 kts 248°
2026-04-28 06:35 -6.11022 106.66085 38 ft 12 kts 249°
2026-04-28 06:35 -6.11050 106.66015 38 ft 10 kts 244°
2026-04-28 06:36 -6.11113 106.66000 38 ft 12 kts 165°
2026-04-28 06:36 -6.11187 106.66030 38 ft 12 kts 154°
2026-04-28 06:36 -6.11240 106.66098 36 ft 12 kts 106°
2026-04-28 06:36 -6.11254 106.66186 36 ft 12 kts 99°
2026-04-28 06:37 -6.11281 106.66258 36 ft 10 kts 136°
2026-04-28 06:37 -6.11317 106.66312 38 ft 11 kts 86°
2026-04-28 06:37 -6.11288 106.66392 37 ft 13 kts 68°
2026-04-28 06:37 -6.11254 106.66476 38 ft 14 kts 68°
2026-04-28 06:38 -6.11215 106.66570 37 ft 16 kts 68°
2026-04-28 06:38 -6.11172 106.66677 38 ft 17 kts 68°
2026-04-28 06:38 -6.11125 106.66795 38 ft 19 kts 68°
2026-04-28 06:38 -6.11074 106.66925 38 ft 21 kts 69°
2026-04-28 06:39 -6.11031 106.67069 38 ft 22 kts 77°
2026-04-28 06:39 -6.10998 106.67218 38 ft 19 kts 77°
2026-04-28 06:39 -6.10999 106.67354 38 ft 21 kts 112°
2026-04-28 06:39 -6.11088 106.67449 38 ft 16 kts 150°
2026-04-28 06:40 -6.11159 106.67441 36 ft 11 kts 233°
2026-04-28 06:40 -6.11195 106.67355 38 ft 14 kts 249°
2026-04-28 06:40 -6.11227 106.67270 35 ft 12 kts 249°
2026-04-28 06:40 -6.11259 106.67198 36 ft 10 kts 231°
2026-04-28 06:41 -6.11303 106.67199 36 ft 6 kts 159°
2026-04-28 06:41 -6.11329 106.67188 36 ft 4 kts 223°
2026-04-28 06:41 -6.11339 106.67170 36 ft 3 kts 247°
2026-04-28 06:41 -6.11345 106.67156 38 ft 2 kts 248°
2026-04-28 06:42 -6.11348 106.67148 38 ft 1 kts 248°
2026-04-28 06:42 -6.11350 106.67144 37 ft 1 kts 248°
2026-04-28 06:42 -6.11351 106.67140 38 ft 0 kts 248°